| time (UTC) | temp F | wind direction | speed MPH | gust MPH | rain 1hr in | rain 24hr in | rain mn in | humidity % | barometer mb |
| 20260905212108 | 80 | 98 | 0.0 | 0.0 | 0.00 | 0.00 | 0.00 | 82 | 1018.7 |
| 20260905211609 | 80 | 98 | 0.0 | 2.0 | 0.00 | 0.00 | 0.00 | 82 | 1018.6 |
| 20260905211103 | 80 | 98 | 0.0 | 3.0 | 0.00 | 0.00 | 0.00 | 82 | 1018.5 |
| 20260905210604 | 80 | 98 | 0.0 | 3.0 | 0.00 | 0.00 | 0.00 | 82 | 1018.5 |
| 20260905210057 | 80 | 98 | 0.0 | 3.0 | 0.00 | 0.00 | 0.00 | 81 | 1018.5 |
| 20260905205558 | 80 | 96 | 1.0 | 3.0 | 0.00 | 0.00 | 0.00 | 81 | 1018.5 |
| 20260905205052 | 81 | 97 | 2.0 | 3.0 | 0.00 | 0.00 | 0.00 | 81 | 1018.6 |
| 20260905204613 | 81 | 96 | 0.0 | 4.0 | 0.00 | 0.00 | 0.00 | 81 | 1018.5 |
| 20260905204107 | 81 | 96 | 2.0 | 4.0 | 0.00 | 0.00 | 0.00 | 80 | 1018.5 |
| 20260905203608 | 81 | 98 | 1.0 | 6.0 | 0.00 | 0.00 | 0.00 | 80 | 1018.4 |
| 20260905203102 | 81 | 109 | 2.0 | 6.0 | 0.00 | 0.00 | 0.00 | 80 | 1018.4 |
| 20260905202603 | 81 | 119 | 1.0 | 5.0 | 0.00 | 0.00 | 0.00 | 80 | 1018.4 |
| 20260905202113 | 81 | 110 | 2.0 | 6.0 | 0.00 | 0.00 | 0.00 | 79 | 1018.4 |
| 20260905201552 | 81 | 99 | 2.0 | 5.0 | 0.00 | 0.00 | 0.00 | 79 | 1018.4 |
| 20260905201113 | 81 | 138 | 1.0 | 5.0 | 0.00 | 0.00 | 0.00 | 79 | 1018.4 |
| 20260905200607 | 81 | 128 | 2.0 | 5.0 | 0.00 | 0.00 | 0.00 | 78 | 1018.3 |
| 20260905200101 | 82 | 145 | 2.0 | 5.0 | 0.00 | 0.00 | 0.00 | 78 | 1018.3 |
| 20260905195602 | 82 | 142 | 3.0 | 5.0 | 0.00 | 0.00 | 0.00 | 78 | 1018.2 |
| 20260905195055 | 82 | 173 | 2.0 | 5.0 | 0.00 | 0.00 | 0.00 | 77 | 1018.2 |
| 20260905194557 | 82 | 144 | 2.0 | 6.0 | 0.00 | 0.00 | 0.00 | 77 | 1018.1 |
| 20260905194051 | 82 | 145 | 3.0 | 6.0 | 0.00 | 0.00 | 0.00 | 77 | 1018.1 |
| 20260905193552 | 83 | 156 | 2.0 | 5.0 | 0.00 | 0.00 | 0.00 | 76 | 1017.9 |
| 20260905193106 | 83 | 163 | 2.0 | 6.0 | 0.00 | 0.00 | 0.00 | 76 | 1017.9 |
| 20260905192627 | 83 | 151 | 2.0 | 6.0 | 0.00 | 0.00 | 0.00 | 75 | 1017.7 |
| 20260905192127 | 83 | 164 | 3.0 | 6.0 | 0.00 | 0.00 | 0.00 | 74 | 1017.6 |
| 20260905191607 | 83 | 150 | 2.0 | 5.0 | 0.00 | 0.00 | 0.00 | 74 | 1017.5 |
| 20260905191100 | 84 | 163 | 1.0 | 4.0 | 0.00 | 0.00 | 0.00 | 73 | 1017.5 |
| 20260905190554 | 84 | 159 | 1.0 | 3.0 | 0.00 | 0.00 | 0.00 | 72 | 1017.5 |
| 20260905190055 | 84 | 151 | 1.0 | 3.0 | 0.00 | 0.00 | 0.00 | 72 | 1017.4 |
| 20260905185616 | 85 | 101 | 1.0 | 3.0 | 0.00 | 0.00 | 0.00 | 72 | 1017.4 |
| 20260905185050 | 85 | 101 | 0.0 | 3.0 | 0.00 | 0.00 | 0.00 | 71 | 1017.2 |
| 20260905184611 | 85 | 101 | 1.0 | 3.0 | 0.00 | 0.00 | 0.00 | 71 | 1017.2 |
| 20260905184106 | 85 | 101 | 1.0 | 3.0 | 0.00 | 0.00 | 0.00 | 71 | 1017.1 |
| 20260905183600 | 85 | 98 | 1.0 | 3.0 | 0.00 | 0.00 | 0.00 | 70 | 1017.0 |
| 20260905183100 | 85 | 96 | 1.0 | 3.0 | 0.00 | 0.00 | 0.00 | 70 | 1016.9 |
| 20260905182554 | 86 | 94 | 1.0 | 4.0 | 0.00 | 0.00 | 0.00 | 69 | 1016.8 |
| 20260905182054 | 86 | 99 | 1.0 | 4.0 | 0.00 | 0.00 | 0.00 | 69 | 1016.8 |
| 20260905181615 | 86 | 111 | 2.0 | 4.0 | 0.00 | 0.00 | 0.00 | 68 | 1016.7 |
| 20260905181129 | 87 | 103 | 2.0 | 4.0 | 0.00 | 0.00 | 0.00 | 68 | 1016.6 |
| 20260905180606 | 87 | 103 | 2.0 | 6.0 | 0.00 | 0.00 | 0.00 | 67 | 1016.6 |
| 20260905180127 | 87 | 102 | 2.0 | 6.0 | 0.00 | 0.00 | 0.00 | 65 | 1016.5 |
| 20260905175606 | 88 | 112 | 1.0 | 3.0 | 0.00 | 0.00 | 0.00 | 65 | 1016.5 |
| 20260905175100 | 88 | 111 | 1.0 | 4.0 | 0.00 | 0.00 | 0.00 | 63 | 1016.4 |
| 20260905174600 | 89 | 111 | 1.0 | 4.0 | 0.00 | 0.00 | 0.00 | 61 | 1016.3 |
| 20260905174122 | 89 | 98 | 1.0 | 3.0 | 0.00 | 0.00 | 0.00 | 60 | 1016.3 |
| 20260905173554 | 90 | 94 | 1.0 | 9.0 | 0.00 | 0.00 | 0.00 | 57 | 1016.2 |
| 20260905173115 | 90 | 92 | 4.0 | 9.0 | 0.00 | 0.00 | 0.00 | 54 | 1016.1 |
| 20260905172609 | 91 | 158 | 0.0 | 2.0 | 0.00 | 0.00 | 0.00 | 49 | 1016.0 |
| 20260905172105 | 91 | 158 | 0.0 | 2.0 | 0.00 | 0.00 | 0.00 | 48 | 1015.9 |
| 20260905171626 | 91 | 159 | 0.0 | 2.0 | 0.00 | 0.00 | 0.00 | 48 | 1015.9 |
| 20260905171059 | 91 | 159 | 0.0 | 2.0 | 0.00 | 0.00 | 0.00 | 48 | 1015.9 |
| 20260905170600 | 92 | 159 | 0.0 | 2.0 | 0.00 | 0.00 | 0.00 | 48 | 1015.9 |
| 20260905170124 | 92 | 159 | 1.0 | 2.0 | 0.00 | 0.00 | 0.00 | 47 | 1015.9 |
| 20260905165556 | 92 | 157 | 0.0 | 3.0 | 0.00 | 0.00 | 0.00 | 47 | 1015.9 |
| 20260905165117 | 92 | 158 | 2.0 | 4.0 | 0.00 | 0.00 | 0.00 | 46 | 1015.8 |
| 20260905164550 | 92 | 157 | 2.0 | 4.0 | 0.00 | 0.00 | 0.00 | 46 | 1015.7 |
| 20260905164111 | 93 | 145 | 2.0 | 4.0 | 0.00 | 0.00 | 0.00 | 46 | 1015.7 |
| 20260905163604 | 93 | 151 | 1.0 | 5.0 | 0.00 | 0.00 | 0.00 | 46 | 1015.6 |
| 20260905163125 | 93 | 148 | 2.0 | 5.0 | 0.00 | 0.00 | 0.00 | 46 | 1015.6 |
| 20260905162605 | 93 | 148 | 2.0 | 3.0 | 0.00 | 0.00 | 0.00 | 46 | 1015.6 |
| 20260905162058 | 93 | 138 | 1.0 | 3.0 | 0.00 | 0.00 | 0.00 | 46 | 1015.5 |
| 20260905161558 | 93 | 69 | 0.0 | 3.0 | 0.00 | 0.00 | 0.00 | 47 | 1015.5 |
| 20260905161052 | 94 | 68 | 2.0 | 3.0 | 0.00 | 0.00 | 0.00 | 45 | 1015.5 |
| 20260905160613 | 94 | 214 | 0.0 | 3.0 | 0.00 | 0.00 | 0.00 | 44 | 1015.5 |
| 20260905160106 | 95 | 216 | 1.0 | 2.0 | 0.00 | 0.00 | 0.00 | 45 | 1015.6 |
| 20260905155607 | 95 | 235 | 0.0 | 4.0 | 0.00 | 0.00 | 0.00 | 45 | 1015.5 |
| 20260905155101 | 95 | 236 | 2.0 | 4.0 | 0.00 | 0.00 | 0.00 | 44 | 1015.5 |
| 20260905154602 | 95 | 252 | 0.0 | 2.0 | 0.00 | 0.00 | 0.00 | 44 | 1015.4 |
| 20260905154056 | 95 | 254 | 0.0 | 1.0 | 0.00 | 0.00 | 0.00 | 45 | 1015.5 |
| 20260905153616 | 94 | 257 | 0.0 | 3.0 | 0.00 | 0.00 | 0.00 | 46 | 1015.4 |
| 20260905153050 | 94 | 257 | 1.0 | 4.0 | 0.00 | 0.00 | 0.00 | 46 | 1015.3 |
| 20260905152611 | 94 | 189 | 1.0 | 4.0 | 0.00 | 0.00 | 0.00 | 46 | 1015.3 |
| 20260905152104 | 94 | 243 | 0.0 | 4.0 | 0.00 | 0.00 | 0.00 | 46 | 1015.3 |
| 20260905151605 | 93 | 233 | 1.0 | 4.0 | 0.00 | 0.00 | 0.00 | 46 | 1015.4 |
| 20260905151105 | 93 | 205 | 1.0 | 4.0 | 0.00 | 0.00 | 0.00 | 47 | 1015.3 |
| 20260905150558 | 93 | 193 | 1.0 | 6.0 | 0.00 | 0.00 | 0.00 | 47 | 1015.4 |
| 20260905150059 | 93 | 203 | 2.0 | 6.0 | 0.00 | 0.00 | 0.00 | 48 | 1015.3 |
| 20260905145553 | 93 | 201 | 1.0 | 4.0 | 0.00 | 0.00 | 0.00 | 49 | 1015.3 |
| 20260905145113 | 93 | 90 | 1.0 | 3.0 | 0.00 | 0.00 | 0.00 | 48 | 1015.3 |
| 20260905144607 | 93 | 67 | 1.0 | 5.0 | 0.00 | 0.00 | 0.00 | 48 | 1015.3 |
| 20260905144109 | 94 | 101 | 2.0 | 5.0 | 0.00 | 0.00 | 0.00 | 48 | 1015.3 |
| 20260905143602 | 94 | 360 | 1.0 | 4.0 | 0.00 | 0.00 | 0.00 | 47 | 1015.3 |
| 20260905143059 | 94 | 293 | 2.0 | 3.0 | 0.00 | 0.00 | 0.00 | 46 | 1015.5 |
| 20260905142553 | 94 | 175 | 1.0 | 3.0 | 0.00 | 0.00 | 0.00 | 47 | 1015.5 |
| 20260905142115 | 94 | 175 | 0.0 | 3.0 | 0.00 | 0.00 | 0.00 | 47 | 1015.5 |
| 20260905141614 | 94 | 173 | 1.0 | 4.0 | 0.00 | 0.00 | 0.00 | 48 | 1015.5 |
| 20260905141124 | 93 | 205 | 2.0 | 6.0 | 0.00 | 0.00 | 0.00 | 48 | 1015.6 |
| 20260905140604 | 93 | 214 | 2.0 | 6.0 | 0.00 | 0.00 | 0.00 | 48 | 1015.6 |
| 20260905140056 | 93 | 200 | 3.0 | 6.0 | 0.00 | 0.00 | 0.00 | 49 | 1015.6 |
| 20260905135555 | 93 | 153 | 3.0 | 5.0 | 0.00 | 0.00 | 0.00 | 49 | 1015.6 |
| 20260905135116 | 93 | 88 | 1.0 | 3.0 | 0.00 | 0.00 | 0.00 | 49 | 1015.7 |
| 20260905134550 | 93 | 61 | 1.0 | 4.0 | 0.00 | 0.00 | 0.00 | 49 | 1015.7 |
| 20260905134131 | 93 | 348 | 1.0 | 4.0 | 0.00 | 0.00 | 0.00 | 49 | 1015.7 |
| 20260905133603 | 93 | 321 | 1.0 | 6.0 | 0.00 | 0.00 | 0.00 | 49 | 1015.8 |
| 20260905133103 | 93 | 309 | 2.0 | 7.0 | 0.00 | 0.00 | 0.00 | 49 | 1015.9 |
| 20260905132617 | 93 | 266 | 1.0 | 5.0 | 0.00 | 0.00 | 0.00 | 49 | 1016.0 |
| 20260905132056 | 93 | 355 | 1.0 | 4.0 | 0.00 | 0.00 | 0.00 | 50 | 1016.0 |
| 20260905131551 | 93 | 271 | 1.0 | 7.0 | 0.00 | 0.00 | 0.00 | 50 | 1016.1 |
| 20260905131051 | 92 | 233 | 2.0 | 7.0 | 0.00 | 0.00 | 0.00 | 49 | 1016.1 |
| 20260905130612 | 92 | 220 | 2.0 | 6.0 | 0.00 | 0.00 | 0.00 | 50 | 1016.1 |
| 20260905130106 | 92 | 164 | 3.0 | 10.0 | 0.00 | 0.00 | 0.00 | 50 | 1016.2 |
| 20260905125601 | 93 | 230 | 6.0 | 10.0 | 0.00 | 0.00 | 0.00 | 49 | 1016.2 |
| 20260905125102 | 93 | 246 | 2.0 | 7.0 | 0.00 | 0.00 | 0.00 | 49 | 1016.2 |
| 20260905124556 | 93 | 152 | 2.0 | 6.0 | 0.00 | 0.00 | 0.00 | 50 | 1016.2 |
| 20260905124118 | 93 | 147 | 2.0 | 6.0 | 0.00 | 0.00 | 0.00 | 49 | 1016.4 |
| 20260905123557 | 93 | 111 | 2.0 | 5.0 | 0.00 | 0.00 | 0.00 | 49 | 1016.5 |
| 20260905123111 | 92 | 216 | 3.0 | 4.0 | 0.00 | 0.00 | 0.00 | 49 | 1016.5 |
| 20260905122558 | 92 | 319 | 1.0 | 4.0 | 0.00 | 0.00 | 0.00 | 50 | 1016.5 |
| 20260905122119 | 92 | 244 | 0.0 | 4.0 | 0.00 | 0.00 | 0.00 | 50 | 1016.6 |
| 20260905121551 | 91 | 261 | 1.0 | 3.0 | 0.00 | 0.00 | 0.00 | 50 | 1016.6 |
| 20260905121052 | 90 | 344 | 1.0 | 3.0 | 0.00 | 0.00 | 0.00 | 51 | 1016.7 |
| 20260905120612 | 91 | 38 | 2.0 | 3.0 | 0.00 | 0.00 | 0.00 | 50 | 1016.7 |
| 20260905120105 | 91 | 312 | 0.0 | 3.0 | 0.00 | 0.00 | 0.00 | 50 | 1016.8 |
| 20260905115605 | 90 | 308 | 1.0 | 3.0 | 0.00 | 0.00 | 0.00 | 50 | 1016.8 |
| 20260905115059 | 90 | 305 | 1.0 | 3.0 | 0.00 | 0.00 | 0.00 | 50 | 1016.8 |
| 20260905114600 | 90 | 269 | 0.0 | 8.0 | 0.00 | 0.00 | 0.00 | 51 | 1016.8 |
| 20260905114053 | 90 | 309 | 3.0 | 8.0 | 0.00 | 0.00 | 0.00 | 50 | 1016.9 |
| 20260905113554 | 90 | 271 | 1.0 | 7.0 | 0.00 | 0.00 | 0.00 | 51 | 1016.8 |
| 20260905113135 | 90 | 295 | 1.0 | 7.0 | 0.00 | 0.00 | 0.00 | 51 | 1016.8 |
| 20260905112635 | 89 | 226 | 1.0 | 10.0 | 0.00 | 0.00 | 0.00 | 53 | 1016.8 |
| 20260905112107 | 88 | 346 | 4.0 | 10.0 | 0.00 | 0.00 | 0.00 | 55 | 1016.8 |
| 20260905111609 | 88 | 26 | 2.0 | 4.0 | 0.00 | 0.00 | 0.00 | 55 | 1016.8 |
| 20260905111115 | 89 | 55 | 1.0 | 4.0 | 0.00 | 0.00 | 0.00 | 53 | 1016.8 |
| 20260905110555 | 89 | 333 | 3.0 | 4.0 | 0.00 | 0.00 | 0.00 | 52 | 1016.9 |
| 20260905110116 | 89 | 355 | 1.0 | 4.0 | 0.00 | 0.00 | 0.00 | 52 | 1016.9 |
| 20260905105608 | 89 | 259 | 2.0 | 4.0 | 0.00 | 0.00 | 0.00 | 53 | 1017.0 |
| 20260905105102 | 88 | 10 | 0.0 | 3.0 | 0.00 | 0.00 | 0.00 | 53 | 1016.9 |
| 20260905104603 | 88 | 43 | 1.0 | 3.0 | 0.00 | 0.00 | 0.00 | 54 | 1016.9 |
| 20260905104057 | 87 | 49 | 0.0 | 4.0 | 0.00 | 0.00 | 0.00 | 54 | 1016.9 |
| 20260905103618 | 87 | 40 | 1.0 | 5.0 | 0.00 | 0.00 | 0.00 | 54 | 1017.0 |
| 20260905103059 | 87 | 5 | 3.0 | 5.0 | 0.00 | 0.00 | 0.00 | 54 | 1017.1 |
| 20260905102550 | 87 | 5 | 0.0 | 3.0 | 0.00 | 0.00 | 0.00 | 56 | 1017.1 |
| 20260905102111 | 86 | 5 | 0.0 | 4.0 | 0.00 | 0.00 | 0.00 | 56 | 1017.1 |
| 20260905101550 | 86 | 32 | 2.0 | 4.0 | 0.00 | 0.00 | 0.00 | 56 | 1017.1 |
| 20260905101104 | 86 | 327 | 2.0 | 4.0 | 0.00 | 0.00 | 0.00 | 56 | 1017.0 |
| 20260905100605 | 86 | 311 | 1.0 | 4.0 | 0.00 | 0.00 | 0.00 | 57 | 1017.1 |
| 20260905100125 | 86 | 22 | 2.0 | 4.0 | 0.00 | 0.00 | 0.00 | 58 | 1017.1 |
| 20260905095558 | 86 | 49 | 1.0 | 4.0 | 0.00 | 0.00 | 0.00 | 57 | 1017.0 |
| 20260905095052 | 85 | 59 | 0.0 | 3.0 | 0.00 | 0.00 | 0.00 | 58 | 1017.1 |
| 20260905094552 | 85 | 59 | 1.0 | 3.0 | 0.00 | 0.00 | 0.00 | 58 | 1017.1 |
| 20260905094113 | 85 | 48 | 1.0 | 3.0 | 0.00 | 0.00 | 0.00 | 58 | 1017.1 |
| 20260905093634 | 85 | 17 | 1.0 | 3.0 | 0.00 | 0.00 | 0.00 | 57 | 1017.2 |
| 20260905093102 | 85 | 323 | 1.0 | 3.0 | 0.00 | 0.00 | 0.00 | 58 | 1017.2 |
| 20260905092557 | 85 | 331 | 2.0 | 4.0 | 0.00 | 0.00 | 0.00 | 58 | 1017.3 |
| 20260905092057 | 85 | 296 | 1.0 | 4.0 | 0.00 | 0.00 | 0.00 | 58 | 1017.3 |
| 20260905091551 | 85 | 355 | 1.0 | 4.0 | 0.00 | 0.00 | 0.00 | 58 | 1017.2 |
| 20260905091112 | 86 | 349 | 2.0 | 4.0 | 0.00 | 0.00 | 0.00 | 58 | 1017.1 |
| 20260905090612 | 86 | 331 | 2.0 | 4.0 | 0.00 | 0.00 | 0.00 | 58 | 1017.1 |
| 20260905090112 | 85 | 38 | 0.0 | 3.0 | 0.00 | 0.00 | 0.00 | 58 | 1017.1 |
| 20260905085605 | 85 | 300 | 2.0 | 3.0 | 0.00 | 0.00 | 0.00 | 59 | 1017.2 |
| 20260905085105 | 84 | 330 | 0.0 | 3.0 | 0.00 | 0.00 | 0.00 | 60 | 1017.2 |
| 20260905084600 | 84 | 330 | 1.0 | 3.0 | 0.00 | 0.00 | 0.00 | 61 | 1017.1 |
| 20260905084059 | 84 | 328 | 2.0 | 3.0 | 0.00 | 0.00 | 0.00 | 61 | 1017.1 |
| 20260905083553 | 84 | 339 | 2.0 | 3.0 | 0.00 | 0.00 | 0.00 | 61 | 1016.9 |
| 20260905083129 | 83 | 95 | 0.0 | 3.0 | 0.00 | 0.00 | 0.00 | 62 | 1016.7 |
| 20260905082608 | 83 | 95 | 1.0 | 3.0 | 0.00 | 0.00 | 0.00 | 62 | 1016.7 |
| 20260905082102 | 82 | 71 | 1.0 | 4.0 | 0.00 | 0.00 | 0.00 | 68 | 1016.7 |
| 20260905081602 | 81 | 51 | 1.0 | 4.0 | 0.00 | 0.00 | 0.00 | 69 | 1016.8 |
| 20260905081056 | 81 | 36 | 2.0 | 4.0 | 0.00 | 0.00 | 0.00 | 70 | 1016.9 |
| 20260905080557 | 80 | 298 | 2.0 | 5.0 | 0.00 | 0.00 | 0.00 | 72 | 1016.8 |
| 20260905080050 | 80 | 306 | 3.0 | 5.0 | 0.00 | 0.00 | 0.00 | 72 | 1016.8 |
| 20260905075550 | 80 | 10 | 2.0 | 4.0 | 0.00 | 0.00 | 0.00 | 73 | 1016.7 |
| 20260905075051 | 79 | 17 | 2.0 | 4.0 | 0.00 | 0.00 | 0.00 | 73 | 1016.6 |
| 20260905074610 | 79 | 39 | 3.0 | 4.0 | 0.00 | 0.00 | 0.00 | 73 | 1016.5 |
| 20260905074103 | 79 | 14 | 1.0 | 4.0 | 0.00 | 0.00 | 0.00 | 74 | 1016.6 |
| 20260905073604 | 78 | 36 | 1.0 | 4.0 | 0.00 | 0.00 | 0.00 | 74 | 1016.6 |
| 20260905073057 | 78 | 31 | 3.0 | 4.0 | 0.00 | 0.00 | 0.00 | 74 | 1016.5 |
| 20260905072558 | 77 | 24 | 0.0 | 3.0 | 0.00 | 0.00 | 0.00 | 76 | 1016.5 |
| 20260905072051 | 77 | 17 | 1.0 | 3.0 | 0.00 | 0.00 | 0.00 | 76 | 1016.4 |
| 20260905071552 | 76 | 344 | 1.0 | 3.0 | 0.00 | 0.00 | 0.00 | 77 | 1016.5 |
| 20260905071114 | 76 | 336 | 1.0 | 3.0 | 0.00 | 0.00 | 0.00 | 78 | 1016.6 |
| 20260905070607 | 76 | 339 | 1.0 | 4.0 | 0.00 | 0.00 | 0.00 | 78 | 1016.6 |
| 20260905070100 | 75 | 342 | 1.0 | 5.0 | 0.00 | 0.00 | 0.00 | 78 | 1016.6 |
| 20260905065601 | 75 | 326 | 1.0 | 5.0 | 0.00 | 0.00 | 0.00 | 79 | 1016.6 |
| 20260905065055 | 75 | 346 | 2.0 | 5.0 | 0.00 | 0.00 | 0.00 | 79 | 1016.6 |
| 20260905064556 | 75 | 340 | 1.0 | 4.0 | 0.00 | 0.00 | 0.00 | 80 | 1016.6 |
| 20260905064118 | 74 | 355 | 1.0 | 4.0 | 0.00 | 0.00 | 0.00 | 80 | 1016.6 |
| 20260905063609 | 74 | 336 | 2.0 | 4.0 | 0.00 | 0.00 | 0.00 | 81 | 1016.5 |
| 20260905063110 | 74 | 5 | 2.0 | 4.0 | 0.00 | 0.00 | 0.00 | 80 | 1016.3 |
| 20260905062603 | 73 | 349 | 2.0 | 3.0 | 0.00 | 0.00 | 0.00 | 81 | 1016.3 |
| 20260905062105 | 73 | 325 | 1.0 | 4.0 | 0.00 | 0.00 | 0.00 | 82 | 1016.1 |
| 20260905061558 | 73 | 325 | 2.0 | 4.0 | 0.00 | 0.00 | 0.00 | 83 | 1016.2 |
| 20260905061059 | 72 | 317 | 2.0 | 4.0 | 0.00 | 0.00 | 0.00 | 84 | 1016.3 |
| 20260905060620 | 72 | 312 | 1.0 | 3.0 | 0.00 | 0.00 | 0.00 | 85 | 1016.3 |
| 20260905060052 | 71 | 311 | 0.0 | 2.0 | 0.00 | 0.00 | 0.00 | 86 | 1016.2 |
| 20260905055552 | 71 | 311 | 0.0 | 4.0 | 0.00 | 0.00 | 0.00 | 86 | 1016.2 |
| 20260905055108 | 71 | 310 | 3.0 | 4.0 | 0.00 | 0.00 | 0.00 | 86 | 1016.5 |
| 20260905054622 | 70 | 317 | 2.0 | 5.0 | 0.00 | 0.00 | 0.00 | 86 | 1016.5 |
| 20260905054101 | 70 | 317 | 3.0 | 4.0 | 0.00 | 0.00 | 0.00 | 85 | 1016.4 |
| 20260905053555 | 70 | 302 | 3.0 | 4.0 | 0.00 | 0.00 | 0.00 | 85 | 1016.4 |
| 20260905053055 | 70 | 327 | 2.0 | 4.0 | 0.00 | 0.00 | 0.00 | 85 | 1016.3 |
| 20260905052556 | 70 | 360 | 0.0 | 0.0 | 0.00 | 0.00 | 0.00 | 85 | 1016.1 |
| 20260905052137 | 70 | 360 | 0.0 | 0.0 | 0.00 | 0.00 | 0.00 | 86 | 1015.9 |
| 20260905051611 | 70 | 360 | 0.0 | 0.0 | 0.00 | 0.00 | 0.00 | 86 | 1015.8 |
| 20260905051051 | 70 | 360 | 0.0 | 0.0 | 0.00 | 0.00 | 0.00 | 86 | 1015.8 |
| 20260905050605 | 69 | 360 | 0.0 | 0.0 | 0.00 | 0.00 | 0.00 | 86 | 1015.8 |
| 20260905050106 | 69 | 360 | 0.0 | 0.0 | 0.00 | 0.00 | 0.00 | 86 | 1015.9 |
| 20260905045559 | 69 | 360 | 0.0 | 0.0 | 0.00 | 0.00 | 0.00 | 86 | 1015.9 |
| 20260905045100 | 70 | 360 | 0.0 | 0.0 | 0.00 | 0.00 | 0.00 | 86 | 1015.9 |
| 20260905044622 | 69 | 360 | 0.0 | 0.0 | 0.00 | 0.00 | 0.00 | 86 | 1015.8 |
| 20260905044054 | 70 | 360 | 0.0 | 0.0 | 0.00 | 0.00 | 0.00 | 86 | 1015.8 |
| 20260905043616 | 69 | 360 | 0.0 | 1.0 | 0.00 | 0.00 | 0.00 | 85 | 1015.6 |
| 20260905043115 | 69 | 360 | 0.0 | 1.0 | 0.00 | 0.00 | 0.00 | 85 | 1015.8 |
| 20260905042608 | 70 | 360 | 0.0 | 3.0 | 0.00 | 0.00 | 0.00 | 85 | 1016.0 |
| 20260905042129 | 70 | 360 | 1.0 | 3.0 | 0.00 | 0.00 | 0.00 | 85 | 1016.0 |
| 20260905041629 | 70 | 355 | 0.0 | 0.0 | 0.00 | 0.00 | 0.00 | 85 | 1015.9 |
| 20260905041102 | 70 | 355 | 0.0 | 2.0 | 0.00 | 0.00 | 0.00 | 85 | 1015.8 |
| 20260905040623 | 70 | 355 | 0.0 | 2.0 | 0.00 | 0.00 | 0.00 | 85 | 1015.9 |
| 20260905040056 | 70 | 355 | 1.0 | 2.0 | 0.00 | 0.00 | 0.00 | 85 | 1016.0 |
| 20260905035556 | 70 | 351 | 0.0 | 1.0 | 0.00 | 0.00 | 0.00 | 85 | 1016.0 |
| 20260905035050 | 70 | 346 | 0.0 | 2.0 | 0.00 | 0.00 | 0.00 | 85 | 1015.9 |
| 20260905034551 | 70 | 346 | 1.0 | 4.0 | 0.00 | 0.00 | 0.00 | 85 | 1015.9 |
| 20260905034129 | 70 | 342 | 1.0 | 4.0 | 0.00 | 0.00 | 0.00 | 85 | 1016.0 |
| 20260905033601 | 70 | 347 | 1.0 | 3.0 | 0.00 | 0.00 | 0.00 | 85 | 1016.0 |
| 20260905033123 | 70 | 346 | 0.0 | 2.0 | 0.00 | 0.00 | 0.00 | 85 | 1016.0 |
| 20260905032602 | 70 | 346 | 0.0 | 2.0 | 0.00 | 0.00 | 0.00 | 84 | 1016.1 |
| 20260905032056 | 70 | 346 | 0.0 | 0.0 | 0.00 | 0.00 | 0.00 | 84 | 1016.0 |
| 20260905031557 | 70 | 346 | 0.0 | 1.0 | 0.00 | 0.00 | 0.00 | 84 | 1016.0 |
| 20260905031108 | 70 | 346 | 0.0 | 0.0 | 0.00 | 0.00 | 0.00 | 84 | 1016.1 |
| 20260905030609 | 70 | 346 | 0.0 | 0.0 | 0.00 | 0.00 | 0.00 | 84 | 1016.1 |
| 20260905025603 | 71 | 346 | 0.0 | 0.0 | 0.00 | 0.00 | 0.00 | 84 | 1016.0 |
| 20260905025100 | 71 | 346 | 0.0 | 0.0 | 0.00 | 0.00 | 0.00 | 84 | 1016.1 |
| 20260905024554 | 71 | 346 | 0.0 | 0.0 | 0.00 | 0.00 | 0.00 | 84 | 1016.1 |
| 20260905024115 | 71 | 346 | 0.0 | 1.0 | 0.00 | 0.00 | 0.00 | 84 | 1015.9 |
| 20260905023609 | 71 | 346 | 0.0 | 0.0 | 0.00 | 0.00 | 0.00 | 84 | 1016.0 |
| 20260905023130 | 71 | 346 | 0.0 | 3.0 | 0.00 | 0.00 | 0.00 | 84 | 1015.9 |
| 20260905022610 | 71 | 346 | 0.0 | 3.0 | 0.00 | 0.00 | 0.00 | 84 | 1015.9 |
| 20260905022101 | 71 | 346 | 1.0 | 2.0 | 0.00 | 0.00 | 0.00 | 84 | 1015.9 |
| 20260905021554 | 71 | 346 | 0.0 | 0.0 | 0.00 | 0.00 | 0.00 | 84 | 1015.9 |
| 20260905021115 | 71 | 346 | 0.0 | 2.0 | 0.00 | 0.00 | 0.00 | 84 | 1015.9 |
| 20260905020554 | 71 | 346 | 0.0 | 2.0 | 0.00 | 0.00 | 0.00 | 84 | 1015.8 |
| 20260905020114 | 71 | 346 | 1.0 | 2.0 | 0.00 | 0.00 | 0.00 | 83 | 1016.0 |
| 20260905015553 | 71 | 346 | 0.0 | 0.0 | 0.00 | 0.00 | 0.00 | 83 | 1015.9 |
| 20260905015106 | 71 | 346 | 0.0 | 0.0 | 0.00 | 0.00 | 0.00 | 83 | 1016.0 |
| 20260905014627 | 71 | 346 | 0.0 | 0.0 | 0.00 | 0.00 | 0.00 | 83 | 1016.0 |
| 20260905014101 | 71 | 346 | 0.0 | 0.0 | 0.00 | 0.00 | 0.00 | 83 | 1016.1 |
| 20260905013559 | 71 | 346 | 0.0 | 0.0 | 0.00 | 0.00 | 0.00 | 83 | 1016.0 |
| 20260905013053 | 71 | 346 | 0.0 | 0.0 | 0.00 | 0.00 | 0.00 | 83 | 1015.9 |
| 20260905012614 | 71 | 346 | 0.0 | 0.0 | 0.00 | 0.00 | 0.00 | 83 | 1015.9 |
| 20260905012113 | 71 | 346 | 0.0 | 3.0 | 0.00 | 0.00 | 0.00 | 82 | 1016.0 |
| 20260905011553 | 71 | 346 | 2.0 | 3.0 | 0.00 | 0.00 | 0.00 | 82 | 1016.1 |
| 20260905011106 | 72 | 5 | 2.0 | 3.0 | 0.00 | 0.00 | 0.00 | 82 | 1016.2 |
| 20260905010550 | 72 | 5 | 0.0 | 0.0 | 0.00 | 0.00 | 0.00 | 81 | 1016.1 |
| 20260905010108 | 72 | 5 | 0.0 | 0.0 | 0.00 | 0.00 | 0.00 | 81 | 1016.0 |
| 20260905005601 | 72 | 5 | 0.0 | 0.0 | 0.00 | 0.00 | 0.00 | 81 | 1016.0 |
| 20260905005101 | 72 | 5 | 0.0 | 0.0 | 0.00 | 0.00 | 0.00 | 81 | 1016.1 |
| 20260905004555 | 72 | 5 | 0.0 | 0.0 | 0.00 | 0.00 | 0.00 | 81 | 1016.1 |
| 20260905004056 | 72 | 5 | 0.0 | 0.0 | 0.00 | 0.00 | 0.00 | 81 | 1016.1 |
| 20260905003550 | 72 | 5 | 0.0 | 0.0 | 0.00 | 0.00 | 0.00 | 80 | 1016.2 |
| 20260905003050 | 72 | 5 | 0.0 | 0.0 | 0.00 | 0.00 | 0.00 | 80 | 1016.2 |
| 20260905002610 | 72 | 5 | 0.0 | 0.0 | 0.00 | 0.00 | 0.00 | 80 | 1016.2 |
| 20260905002104 | 73 | 5 | 0.0 | 0.0 | 0.00 | 0.00 | 0.00 | 80 | 1016.2 |
| 20260905001605 | 73 | 5 | 0.0 | 0.0 | 0.00 | 0.00 | 0.00 | 80 | 1016.3 |
| 20260905001059 | 73 | 5 | 0.0 | 0.0 | 0.00 | 0.00 | 0.00 | 79 | 1016.3 |
| 20260905000559 | 73 | 5 | 0.0 | 0.0 | 0.00 | 0.00 | 0.00 | 80 | 1016.4 |
| 20260905000053 | 73 | 5 | 0.0 | 0.0 | 0.00 | 0.00 | 0.00 | 80 | 1016.4 |
| 20260904235553 | 73 | 5 | 0.0 | 0.0 | 0.00 | 0.00 | 0.00 | 80 | 1016.5 |
| 20260904235053 | 73 | 5 | 0.0 | 0.0 | 0.00 | 0.00 | 0.00 | 80 | 1016.5 |
| 20260904234607 | 73 | 5 | 0.0 | 2.0 | 0.00 | 0.00 | 0.00 | 80 | 1016.6 |
| 20260904234107 | 73 | 5 | 0.0 | 2.0 | 0.00 | 0.00 | 0.00 | 80 | 1016.5 |
| 20260904233601 | 73 | 5 | 0.0 | 2.0 | 0.00 | 0.00 | 0.00 | 79 | 1016.5 |
| 20260904233056 | 73 | 5 | 1.0 | 2.0 | 0.00 | 0.00 | 0.00 | 79 | 1016.7 |
| 20260904232549 | 74 | 5 | 1.0 | 2.0 | 0.00 | 0.00 | 0.00 | 79 | 1016.7 |
| 20260904232110 | 74 | 5 | 0.0 | 2.0 | 0.00 | 0.00 | 0.00 | 79 | 1016.8 |
| 20260904231550 | 74 | 5 | 1.0 | 2.0 | 0.00 | 0.00 | 0.00 | 79 | 1016.8 |
| 20260904231104 | 74 | 5 | 0.0 | 1.0 | 0.00 | 0.00 | 0.00 | 79 | 1016.8 |
| 20260904230604 | 74 | 5 | 0.0 | 1.0 | 0.00 | 0.00 | 0.00 | 79 | 1016.9 |
| 20260904230058 | 74 | 5 | 0.0 | 0.0 | 0.00 | 0.00 | 0.00 | 78 | 1016.9 |
| 20260904225557 | 74 | 5 | 0.0 | 0.0 | 0.00 | 0.00 | 0.00 | 78 | 1017.0 |
| 20260904225058 | 74 | 5 | 0.0 | 0.0 | 0.00 | 0.00 | 0.00 | 78 | 1016.9 |
| 20260904224550 | 74 | 5 | 0.0 | 2.0 | 0.00 | 0.00 | 0.00 | 78 | 1017.0 |
| 20260904224050 | 74 | 5 | 0.0 | 2.0 | 0.00 | 0.00 | 0.00 | 78 | 1016.9 |
| 20260904223611 | 74 | 5 | 1.0 | 2.0 | 0.00 | 0.00 | 0.00 | 78 | 1017.0 |
| 20260904223105 | 74 | 5 | 0.0 | 1.0 | 0.00 | 0.00 | 0.00 | 78 | 1016.9 |
| 20260904222559 | 75 | 5 | 0.0 | 3.0 | 0.00 | 0.00 | 0.00 | 77 | 1016.9 |
| 20260904222059 | 75 | 5 | 0.0 | 3.0 | 0.00 | 0.00 | 0.00 | 77 | 1017.0 |
| 20260904221553 | 75 | 13 | 0.0 | 2.0 | 0.00 | 0.00 | 0.00 | 77 | 1017.0 |
| 20260904221054 | 75 | 13 | 0.0 | 2.0 | 0.00 | 0.00 | 0.00 | 76 | 1016.9 |
| 20260904220615 | 75 | 14 | 1.0 | 2.0 | 0.00 | 0.00 | 0.00 | 76 | 1017.0 |
| 20260904220049 | 76 | 15 | 1.0 | 2.0 | 0.00 | 0.00 | 0.00 | 75 | 1017.0 |
| 20260904215559 | 76 | 16 | 0.0 | 3.0 | 0.00 | 0.00 | 0.00 | 75 | 1017.0 |
| 20260904215100 | 76 | 16 | 1.0 | 3.0 | 0.00 | 0.00 | 0.00 | 74 | 1017.0 |
| 20260904214554 | 76 | 26 | 0.0 | 0.0 | 0.00 | 0.00 | 0.00 | 74 | 1017.0 |
| 20260904214054 | 76 | 26 | 0.0 | 2.0 | 0.00 | 0.00 | 0.00 | 74 | 1017.1 |
| 20260904213615 | 77 | 26 | 0.0 | 2.0 | 0.00 | 0.00 | 0.00 | 73 | 1017.1 |
| 20260904213108 | 77 | 69 | 0.0 | 2.0 | 0.00 | 0.00 | 0.00 | 73 | 1017.1 |
| 20260904212606 | 77 | 78 | 0.0 | 1.0 | 0.00 | 0.00 | 0.00 | 73 | 1017.1 |